ACA21 KLAX-CYYC

Flight info

Callsign ACA21
Flight time 2h 2m
Altitude 38000
Route LADYJ4 CSTRO DCT FMG/N0482F390 J7 REO/N0480F380 DCT ANTAK IGVEP7
Aircraft B77W/H-SDE1E2E3FGHIJ2J3J4J5M1RWXY/LB1D1

Departure

Time 2026-04-26 23:25
Airport Los Angeles International Airport (KLAX)

Arrival

Time 2026-04-27 01:28
Airport Calgary International Airport (CYYC)
Time Latitude Longitude Altitude Speed Heading
2026-04-26 23:00 33.94175 -118.41120 110 ft 0 kts 82°
2026-04-26 23:15 33.94174 -118.41123 130 ft 3 kts 83°
2026-04-26 23:16 33.94171 -118.41155 127 ft 4 kts 83°
2026-04-26 23:16 33.94169 -118.41183 125 ft 4 kts 72°
2026-04-26 23:16 33.94156 -118.41202 125 ft 4 kts
2026-04-26 23:16 33.94129 -118.41201 125 ft 3 kts 353°
2026-04-26 23:17 33.94125 -118.41200 125 ft 0 kts 353°
2026-04-26 23:19 33.94167 -118.41206 125 ft 17 kts 353°
2026-04-26 23:19 33.94353 -118.41241 128 ft 38 kts 353°
2026-04-26 23:19 33.94641 -118.41273 126 ft 35 kts 11°
2026-04-26 23:19 33.94706 -118.41198 128 ft 0 kts 61°
2026-04-26 23:22 33.94730 -118.41100 127 ft 25 kts 83°
2026-04-26 23:22 33.94778 -118.40907 128 ft 22 kts 40°
2026-04-26 23:22 33.94848 -118.40751 126 ft 22 kts 80°
2026-04-26 23:22 33.94868 -118.40571 128 ft 22 kts 84°
2026-04-26 23:23 33.94885 -118.40389 130 ft 22 kts 83°
2026-04-26 23:23 33.94904 -118.40208 126 ft 22 kts 83°
2026-04-26 23:23 33.94956 -118.40074 128 ft 15 kts 13°
2026-04-26 23:23 33.95011 -118.40106 126 ft 7 kts 292°
2026-04-26 23:24 33.95017 -118.40163 126 ft 7 kts 270°
2026-04-26 23:24 33.95017 -118.40170 126 ft 0 kts 269°
2026-04-26 23:25 33.95001 -118.40356 127 ft 65 kts 263°
2026-04-26 23:25 33.94902 -118.41274 126 ft 152 kts 263°
2026-04-26 23:25 33.94775 -118.42769 324 ft 196 kts 263°
2026-04-26 23:25 33.94648 -118.44404 1385 ft 197 kts 262°
2026-04-26 23:26 33.94472 -118.46049 2342 ft 198 kts 260°
2026-04-26 23:26 33.94282 -118.47749 2836 ft 217 kts 266°
2026-04-26 23:26 33.94221 -118.49620 3553 ft 224 kts 268°
2026-04-26 23:26 33.94185 -118.51526 4309 ft 229 kts 266°
2026-04-26 23:27 33.94048 -118.53446 5203 ft 229 kts 264°
2026-04-26 23:27 33.93890 -118.55348 6145 ft 229 kts 264°
2026-04-26 23:27 33.93728 -118.57332 6629 ft 250 kts 264°
2026-04-26 23:27 33.93559 -118.59447 7282 ft 254 kts 264°
2026-04-26 23:28 33.93514 -118.61563 7683 ft 256 kts 279°
2026-04-26 23:28 33.94210 -118.63543 8020 ft 267 kts 303°
2026-04-26 23:28 33.95593 -118.65047 8004 ft 264 kts 325°
2026-04-26 23:28 33.97193 -118.66217 8020 ft 275 kts 325°
2026-04-26 23:29 33.98854 -118.67351 7986 ft 280 kts 336°
2026-04-26 23:29 34.00784 -118.67695 8004 ft 284 kts 360°
2026-04-26 23:29 34.02767 -118.67538 8028 ft 286 kts
2026-04-26 23:29 34.04734 -118.67398 8399 ft 279 kts
2026-04-26 23:30 34.06700 -118.67268 9091 ft 287 kts 360°
2026-04-26 23:30 34.08727 -118.67066 9773 ft 297 kts
2026-04-26 23:30 34.10765 -118.66607 10413 ft 300 kts
2026-04-26 23:30 34.12821 -118.66072 11046 ft 303 kts
2026-04-26 23:31 34.14872 -118.65543 11680 ft 306 kts
2026-04-26 23:31 34.16994 -118.65016 12347 ft 309 kts
2026-04-26 23:31 34.19112 -118.64505 13028 ft 313 kts
2026-04-26 23:31 34.21240 -118.63999 13723 ft 317 kts
2026-04-26 23:32 34.23437 -118.63482 14278 ft 328 kts
2026-04-26 23:32 34.25763 -118.63387 14454 ft 346 kts 347°
2026-04-26 23:32 34.28208 -118.63974 14671 ft 373 kts 343°
2026-04-26 23:32 34.30829 -118.64650 15167 ft 391 kts 344°
2026-04-26 23:33 34.33532 -118.65318 15882 ft 402 kts 345°
2026-04-26 23:33 34.36293 -118.65967 16585 ft 407 kts 345°
2026-04-26 23:33 34.39089 -118.66606 17342 ft 411 kts 345°
2026-04-26 23:33 34.41917 -118.67248 18082 ft 416 kts 345°
2026-04-26 23:34 34.44785 -118.67872 18779 ft 421 kts 346°
2026-04-26 23:34 34.47658 -118.68437 19433 ft 426 kts 347°
2026-04-26 23:34 34.50605 -118.68996 20130 ft 430 kts 347°
2026-04-26 23:34 34.53585 -118.69561 20819 ft 435 kts 347°
2026-04-26 23:35 34.56594 -118.70138 21526 ft 439 kts 347°
2026-04-26 23:35 34.59628 -118.70728 22277 ft 443 kts 347°
2026-04-26 23:35 34.62688 -118.71325 23031 ft 448 kts 346°
2026-04-26 23:35 34.65748 -118.71924 23752 ft 452 kts 346°
2026-04-26 23:36 34.68876 -118.72539 24419 ft 457 kts 346°
2026-04-26 23:36 34.72003 -118.73264 25078 ft 457 kts 339°
2026-04-26 23:36 34.74864 -118.74802 25749 ft 447 kts 325°
2026-04-26 23:36 34.77557 -118.76716 26457 ft 449 kts 324°
2026-04-26 23:37 34.80253 -118.78661 27176 ft 451 kts 324°
2026-04-26 23:37 34.82966 -118.80603 27918 ft 453 kts 324°
2026-04-26 23:37 34.85691 -118.82527 28671 ft 454 kts 324°
2026-04-26 23:37 34.88441 -118.84444 29452 ft 455 kts 324°
2026-04-26 23:38 34.91195 -118.86347 30206 ft 455 kts 324°
2026-04-26 23:38 34.93951 -118.88243 30890 ft 454 kts 324°
2026-04-26 23:38 34.96708 -118.90137 31566 ft 452 kts 324°
2026-04-26 23:38 34.99440 -118.92016 32271 ft 450 kts 324°
2026-04-26 23:39 35.02159 -118.93888 32991 ft 447 kts 324°
2026-04-26 23:39 35.04877 -118.95764 33431 ft 452 kts 324°
2026-04-26 23:39 35.07607 -118.97658 33542 ft 462 kts 324°
2026-04-26 23:39 35.10433 -118.99618 33731 ft 470 kts 324°
2026-04-26 23:40 35.13298 -119.01605 33967 ft 476 kts 324°
2026-04-26 23:40 35.16194 -119.03608 34287 ft 478 kts 324°
2026-04-26 23:40 35.19083 -119.05605 34677 ft 477 kts 324°
2026-04-26 23:40 35.21969 -119.07603 35105 ft 476 kts 324°
2026-04-26 23:41 35.24850 -119.09600 35511 ft 475 kts 324°
2026-04-26 23:41 35.27723 -119.11595 35891 ft 474 kts 324°
2026-04-26 23:41 35.30598 -119.13594 36277 ft 474 kts 324°
2026-04-26 23:41 35.33457 -119.15585 36633 ft 473 kts 324°
2026-04-26 23:42 35.36333 -119.17590 36900 ft 475 kts 323°
2026-04-26 23:42 35.45096 -119.23368 36950 ft 484 kts 335°
2026-04-26 23:43 35.48429 -119.24156 36967 ft 492 kts 349°
2026-04-26 23:43 35.51900 -119.24464 36976 ft 495 kts 350°
2026-04-26 23:43 35.58762 -119.24976 36981 ft 498 kts 351°
2026-04-26 23:44 35.65681 -119.25556 36989 ft 499 kts 350°
2026-04-26 23:44 35.72614 -119.26213 36977 ft 499 kts 350°
2026-04-26 23:45 35.79487 -119.26894 36977 ft 497 kts 350°
2026-04-26 23:45 35.86378 -119.27580 36971 ft 495 kts 350°
2026-04-26 23:46 35.93238 -119.28260 36979 ft 493 kts 350°
2026-04-26 23:46 35.96643 -119.28596 37234 ft 488 kts 350°
2026-04-26 23:46 36.00000 -119.28923 37916 ft 480 kts 349°
2026-04-26 23:47 36.06730 -119.29595 38016 ft 490 kts 349°
2026-04-26 23:47 36.13568 -119.30284 38015 ft 501 kts 350°
2026-04-26 23:48 36.20506 -119.30976 38008 ft 506 kts 350°
2026-04-26 23:48 36.27547 -119.31673 37997 ft 507 kts 350°
2026-04-26 23:49 36.34586 -119.32372 37997 ft 506 kts 350°
2026-04-26 23:49 36.41556 -119.33066 37997 ft 504 kts 350°
2026-04-26 23:50 36.48540 -119.33766 37999 ft 502 kts 350°
2026-04-26 23:50 36.55499 -119.34464 38002 ft 500 kts 350°
2026-04-26 23:51 36.62431 -119.35162 38003 ft 498 kts 350°
2026-04-26 23:51 36.69335 -119.35858 38000 ft 497 kts 350°
2026-04-26 23:52 36.76243 -119.36555 38005 ft 497 kts 350°
2026-04-26 23:52 36.83090 -119.37248 38002 ft 497 kts 350°
2026-04-26 23:53 36.89992 -119.37948 38008 ft 498 kts 350°
2026-04-26 23:53 36.96898 -119.38650 38003 ft 498 kts 350°
2026-04-26 23:54 37.03811 -119.39351 38014 ft 498 kts 350°
2026-04-26 23:54 37.10722 -119.40055 38011 ft 497 kts 350°
2026-04-26 23:55 37.17608 -119.40757 38015 ft 495 kts 350°
2026-04-26 23:55 37.24428 -119.41453 38005 ft 494 kts 350°
2026-04-26 23:56 37.30132 -119.42037 38014 ft 493 kts 350°
2026-04-26 23:56 37.36955 -119.42737 38002 ft 492 kts 350°
2026-04-26 23:57 37.43765 -119.43438 38007 ft 491 kts 350°
2026-04-26 23:57 37.50604 -119.44142 37997 ft 491 kts 350°
2026-04-26 23:58 37.57415 -119.44845 38003 ft 492 kts 350°
2026-04-26 23:58 37.64237 -119.45550 37993 ft 492 kts 350°
2026-04-26 23:59 37.71028 -119.46252 37985 ft 493 kts 350°
2026-04-26 23:59 37.77878 -119.46963 37979 ft 493 kts 350°
2026-04-27 00:00 37.84724 -119.47675 37968 ft 494 kts 350°
2026-04-27 00:00 37.91573 -119.48390 37970 ft 493 kts 350°
2026-04-27 00:01 37.98429 -119.49102 37957 ft 494 kts 350°
2026-04-27 00:01 38.05297 -119.49818 37950 ft 495 kts 350°
2026-04-27 00:02 38.12111 -119.50533 37927 ft 495 kts 350°
2026-04-27 00:02 38.18984 -119.51254 37932 ft 495 kts 350°
2026-04-27 00:03 38.25853 -119.51975 37934 ft 496 kts 350°
2026-04-27 00:03 38.32746 -119.52700 37904 ft 496 kts 350°
2026-04-27 00:04 38.39621 -119.53427 37890 ft 496 kts 350°
2026-04-27 00:04 38.46497 -119.54153 37896 ft 495 kts 350°
2026-04-27 00:05 38.53329 -119.54876 37855 ft 494 kts 350°
2026-04-27 00:05 38.60169 -119.55600 37853 ft 493 kts 351°
2026-04-27 00:06 38.66966 -119.56322 37839 ft 493 kts 351°
2026-04-27 00:06 38.73816 -119.57053 37840 ft 492 kts 351°
2026-04-27 00:07 38.80652 -119.57782 37847 ft 492 kts 351°
2026-04-27 00:07 38.87476 -119.58511 37853 ft 492 kts 351°
2026-04-27 00:08 38.94260 -119.59238 37869 ft 492 kts 351°
2026-04-27 00:08 39.01106 -119.59973 37873 ft 492 kts 351°
2026-04-27 00:09 39.07930 -119.60707 37857 ft 492 kts 351°
2026-04-27 00:09 39.14731 -119.61440 37884 ft 492 kts 351°
2026-04-27 00:10 39.21559 -119.62176 37898 ft 492 kts 351°
2026-04-27 00:10 39.28390 -119.62915 37889 ft 492 kts 351°
2026-04-27 00:11 39.35214 -119.63655 37864 ft 492 kts 351°
2026-04-27 00:11 39.42045 -119.64396 37844 ft 492 kts 352°
2026-04-27 00:12 39.48874 -119.65077 37843 ft 494 kts 356°
2026-04-27 00:12 39.55685 -119.63983 37846 ft 501 kts 11°
2026-04-27 00:13 39.62238 -119.60772 37830 ft 505 kts 21°
2026-04-27 00:13 39.68670 -119.57045 37830 ft 506 kts 21°
2026-04-27 00:14 39.75121 -119.53337 37829 ft 506 kts 21°
2026-04-27 00:14 39.81569 -119.49704 37811 ft 506 kts 20°
2026-04-27 00:15 39.88004 -119.46101 37802 ft 505 kts 20°
2026-04-27 00:15 39.94461 -119.42477 37814 ft 505 kts 20°
2026-04-27 00:16 40.00927 -119.38835 37813 ft 505 kts 21°
2026-04-27 00:16 40.07378 -119.35192 37820 ft 505 kts 21°
2026-04-27 00:17 40.13824 -119.31544 37827 ft 505 kts 21°
2026-04-27 00:17 40.20266 -119.27892 37826 ft 504 kts 21°
2026-04-27 00:18 40.26707 -119.24232 37822 ft 504 kts 21°
2026-04-27 00:18 40.33106 -119.20589 37826 ft 504 kts 21°
2026-04-27 00:19 40.39536 -119.16920 37827 ft 503 kts 21°
2026-04-27 00:19 40.45954 -119.13250 37829 ft 503 kts 21°
2026-04-27 00:20 40.52375 -119.09571 37833 ft 503 kts 21°
2026-04-27 00:20 40.58790 -119.05889 37835 ft 502 kts 21°
2026-04-27 00:21 40.65197 -119.02204 37832 ft 502 kts 21°
2026-04-27 00:21 40.71558 -118.98538 37834 ft 502 kts 21°
2026-04-27 00:22 40.77962 -118.94839 37832 ft 502 kts 21°
2026-04-27 00:22 40.84353 -118.91138 37833 ft 502 kts 21°
2026-04-27 00:23 40.90745 -118.87429 37834 ft 501 kts 21°
2026-04-27 00:23 40.97133 -118.83715 37835 ft 501 kts 21°
2026-04-27 00:24 41.03523 -118.79993 37831 ft 501 kts 21°
2026-04-27 00:24 41.09909 -118.76263 37831 ft 501 kts 21°
2026-04-27 00:25 41.16294 -118.72527 37833 ft 501 kts 21°
2026-04-27 00:25 41.22632 -118.68811 37833 ft 501 kts 22°
2026-04-27 00:26 41.29015 -118.65060 37833 ft 501 kts 22°
2026-04-27 00:26 41.35404 -118.61297 37832 ft 501 kts 22°
2026-04-27 00:27 41.41782 -118.57533 37834 ft 501 kts 22°
2026-04-27 00:27 41.48158 -118.53762 37817 ft 502 kts 22°
2026-04-27 00:28 41.54541 -118.49979 37822 ft 502 kts 22°
2026-04-27 00:28 41.60923 -118.46188 37843 ft 501 kts 22°
2026-04-27 00:29 41.67302 -118.42390 37833 ft 502 kts 22°
2026-04-27 00:29 41.73684 -118.38583 37828 ft 502 kts 22°
2026-04-27 00:30 41.80058 -118.34772 37832 ft 501 kts 22°
2026-04-27 00:30 41.86393 -118.30975 37821 ft 501 kts 22°
2026-04-27 00:31 41.92766 -118.27148 37820 ft 501 kts 22°
2026-04-27 00:31 41.99137 -118.23313 37825 ft 501 kts 22°
2026-04-27 00:32 42.05504 -118.19473 37821 ft 501 kts 22°
2026-04-27 00:32 42.11875 -118.15622 37813 ft 501 kts 22°
2026-04-27 00:33 42.18242 -118.11763 37812 ft 501 kts 22°
2026-04-27 00:33 42.24560 -118.07927 37812 ft 501 kts 22°
2026-04-27 00:34 42.30923 -118.04055 37817 ft 501 kts 22°
2026-04-27 00:34 42.37279 -118.00179 37806 ft 501 kts 22°
2026-04-27 00:35 42.43533 -117.96355 37806 ft 501 kts 22°
2026-04-27 00:35 42.49887 -117.92461 37811 ft 501 kts 22°
2026-04-27 00:36 42.56250 -117.88570 37812 ft 501 kts 21°
2026-04-27 00:36 42.62849 -117.85665 37805 ft 497 kts
2026-04-27 00:37 42.69590 -117.83893 37811 ft 496 kts
2026-04-27 00:37 42.76383 -117.82192 37809 ft 496 kts
2026-04-27 00:38 42.83176 -117.80442 37812 ft 496 kts
2026-04-27 00:38 42.89959 -117.78650 37813 ft 496 kts
2026-04-27 00:39 42.96705 -117.76851 37820 ft 496 kts
2026-04-27 00:39 43.03481 -117.75039 37826 ft 496 kts
2026-04-27 00:40 43.10267 -117.73224 37832 ft 496 kts
2026-04-27 00:40 43.17043 -117.71409 37828 ft 496 kts
2026-04-27 00:41 43.23815 -117.69592 37835 ft 496 kts
2026-04-27 00:41 43.30595 -117.67768 37836 ft 496 kts
2026-04-27 00:42 43.36225 -117.66250 37840 ft 496 kts
2026-04-27 00:42 43.42996 -117.64420 37840 ft 496 kts
2026-04-27 00:43 43.49769 -117.62585 37846 ft 496 kts
2026-04-27 00:43 43.56539 -117.60747 37837 ft 495 kts
2026-04-27 00:44 43.63306 -117.58907 37842 ft 495 kts
2026-04-27 00:44 43.70032 -117.57073 37844 ft 496 kts
2026-04-27 00:45 43.76795 -117.55224 37849 ft 495 kts
2026-04-27 00:45 43.83561 -117.53371 37843 ft 495 kts
2026-04-27 00:46 43.90312 -117.51517 37845 ft 495 kts
2026-04-27 00:46 43.97077 -117.49655 37846 ft 495 kts
2026-04-27 00:47 44.03839 -117.47790 37843 ft 495 kts
2026-04-27 00:47 44.10591 -117.45923 37849 ft 495 kts
2026-04-27 00:48 44.23880 -117.42236 37841 ft 495 kts
2026-04-27 00:49 44.30769 -117.40318 37842 ft 495 kts
2026-04-27 00:49 44.37529 -117.38431 37848 ft 495 kts
2026-04-27 00:50 44.47653 -117.35598 37843 ft 495 kts
2026-04-27 00:51 44.54411 -117.33700 37860 ft 494 kts
2026-04-27 00:51 44.61118 -117.31811 37859 ft 494 kts
2026-04-27 00:52 44.67879 -117.29903 37845 ft 494 kts
2026-04-27 00:52 44.74628 -117.27997 37854 ft 494 kts
2026-04-27 00:53 44.81378 -117.26085 37853 ft 494 kts 10°
2026-04-27 00:53 44.88118 -117.24170 37866 ft 494 kts 10°
2026-04-27 00:54 44.94818 -117.22262 37870 ft 494 kts 10°
2026-04-27 00:54 45.01563 -117.20336 37874 ft 494 kts
2026-04-27 00:55 45.08297 -117.18409 37891 ft 494 kts
2026-04-27 00:55 45.15035 -117.16475 37900 ft 494 kts
2026-04-27 00:56 45.21771 -117.14539 37904 ft 494 kts
2026-04-27 00:56 45.28481 -117.12605 37904 ft 494 kts
2026-04-27 00:57 45.35231 -117.10656 37900 ft 494 kts
2026-04-27 00:57 45.41978 -117.08702 37901 ft 494 kts
2026-04-27 00:58 45.48727 -117.06743 37894 ft 494 kts 10°
2026-04-27 00:58 45.55465 -117.04781 37891 ft 494 kts 10°
2026-04-27 00:59 45.62165 -117.02826 37620 ft 497 kts 10°
2026-04-27 00:59 45.65562 -117.01834 37049 ft 495 kts 10°
2026-04-27 00:59 45.68894 -117.00857 36685 ft 485 kts 10°
2026-04-27 00:59 45.72161 -116.99898 36575 ft 471 kts 10°
2026-04-27 01:00 45.75350 -116.98961 36628 ft 468 kts 10°
2026-04-27 01:00 45.81823 -116.97063 36660 ft 481 kts 10°
2026-04-27 01:01 46.08304 -116.89239 36631 ft 494 kts 10°
2026-04-27 01:01 46.14931 -116.87263 36233 ft 480 kts 10°
2026-04-27 01:01 46.18173 -116.86294 36118 ft 470 kts 10°
2026-04-27 01:02 46.21324 -116.85353 36122 ft 468 kts 10°
2026-04-27 01:02 46.34526 -116.81407 36149 ft 481 kts 10°
2026-04-27 01:03 46.71631 -116.70202 36111 ft 483 kts 10°
2026-04-27 01:03 46.87932 -116.65215 36019 ft 462 kts 10°
2026-04-27 01:04 46.94324 -116.63262 36090 ft 476 kts 11°
2026-04-27 01:04 47.00817 -116.61272 36090 ft 481 kts 11°
2026-04-27 01:05 47.16547 -116.56416 36118 ft 480 kts 11°
2026-04-27 01:05 47.67058 -116.40632 36173 ft 476 kts 11°
2026-04-27 01:06 47.73548 -116.38581 36163 ft 475 kts 11°
2026-04-27 01:06 47.76780 -116.37556 35902 ft 475 kts 11°
2026-04-27 01:06 47.80012 -116.36531 35560 ft 474 kts 11°
2026-04-27 01:06 47.83231 -116.35508 35103 ft 471 kts 11°
2026-04-27 01:07 47.86420 -116.34494 34626 ft 465 kts 11°
2026-04-27 01:07 47.89573 -116.33489 34169 ft 460 kts 11°
2026-04-27 01:07 47.92640 -116.32511 33678 ft 455 kts 11°
2026-04-27 01:07 47.95720 -116.31529 33142 ft 450 kts 11°
2026-04-27 01:08 47.98756 -116.30560 32610 ft 445 kts 11°
2026-04-27 01:08 48.01768 -116.29597 32097 ft 440 kts 11°
2026-04-27 01:08 48.04780 -116.28633 31600 ft 451 kts 11°
2026-04-27 01:08 48.09905 -116.26994 30900 ft 468 kts 11°
2026-04-27 01:09 48.33973 -116.19250 27426 ft 448 kts 12°
2026-04-27 01:09 48.46008 -116.15334 25668 ft 431 kts 13°
2026-04-27 01:09 48.62514 -116.09935 23150 ft 397 kts 13°
2026-04-27 01:09 48.72288 -116.06703 21456 ft 393 kts 12°
2026-04-27 01:10 48.93252 -115.99771 18375 ft 401 kts 12°
2026-04-27 01:10 49.01273 -115.97106 17034 ft 391 kts 11°
2026-04-27 01:10 49.12613 -115.93310 15352 ft 373 kts 11°
2026-04-27 01:10 49.15161 -115.92463 15160 ft 376 kts 10°
2026-04-27 01:11 49.17737 -115.91606 14962 ft 380 kts 10°
2026-04-27 01:11 49.20374 -115.90727 14799 ft 397 kts 10°
2026-04-27 01:11 49.23101 -115.89814 14615 ft 403 kts 10°
2026-04-27 01:11 49.25822 -115.88897 14443 ft 406 kts 10°
2026-04-27 01:12 49.28583 -115.87966 14255 ft 404 kts 10°
2026-04-27 01:12 49.31326 -115.87040 14088 ft 403 kts 10°
2026-04-27 01:12 49.34031 -115.85944 14065 ft 402 kts 16°
2026-04-27 01:12 49.36643 -115.84386 14070 ft 405 kts 22°
2026-04-27 01:13 49.39148 -115.82386 14062 ft 407 kts 27°
2026-04-27 01:13 49.41620 -115.80254 14062 ft 407 kts 27°
2026-04-27 01:13 49.44084 -115.78105 14053 ft 407 kts 27°
2026-04-27 01:13 49.46552 -115.75950 14043 ft 406 kts 27°
2026-04-27 01:14 49.48970 -115.73842 14031 ft 388 kts 27°
2026-04-27 01:14 49.51232 -115.71872 14024 ft 370 kts 27°
2026-04-27 01:14 49.53422 -115.69970 14024 ft 353 kts 27°
2026-04-27 01:14 49.64392 -115.60483 14061 ft 347 kts 26°
2026-04-27 01:15 49.81339 -115.45730 14186 ft 348 kts 26°
2026-04-27 01:15 49.98109 -115.31006 14127 ft 344 kts 26°
2026-04-27 01:15 50.10777 -115.19804 14066 ft 337 kts 26°
2026-04-27 01:15 50.19005 -115.12495 14115 ft 333 kts 26°
2026-04-27 01:16 50.34074 -114.99037 14216 ft 334 kts 27°
2026-04-27 01:16 50.36106 -114.97213 14228 ft 337 kts 27°
2026-04-27 01:16 50.38150 -114.95375 14220 ft 340 kts 27°
2026-04-27 01:16 50.40206 -114.93524 14229 ft 340 kts 27°
2026-04-27 01:17 50.49007 -114.85586 14217 ft 342 kts 27°
2026-04-27 01:17 50.51086 -114.83705 14256 ft 341 kts 27°
2026-04-27 01:17 50.58909 -114.76615 14246 ft 340 kts 27°
2026-04-27 01:17 50.61222 -114.74514 14055 ft 335 kts 27°
2026-04-27 01:18 50.63203 -114.72708 13971 ft 323 kts 27°
2026-04-27 01:18 50.65107 -114.70974 13877 ft 310 kts 27°
2026-04-27 01:18 50.66943 -114.69300 13788 ft 298 kts 27°
2026-04-27 01:18 50.68705 -114.67692 13667 ft 287 kts 27°
2026-04-27 01:19 50.70427 -114.66117 13358 ft 283 kts 28°
2026-04-27 01:19 50.71923 -114.64226 13034 ft 279 kts 42°
2026-04-27 01:19 50.73245 -114.62007 12769 ft 276 kts 45°
2026-04-27 01:19 50.74388 -114.59633 12452 ft 273 kts 60°
2026-04-27 01:20 50.75129 -114.56865 12198 ft 273 kts 68°
2026-04-27 01:20 50.75757 -114.54040 12021 ft 274 kts 69°
2026-04-27 01:20 50.76374 -114.51238 11832 ft 265 kts 69°
2026-04-27 01:20 50.76984 -114.48524 11465 ft 261 kts 68°
2026-04-27 01:21 50.77597 -114.45860 11150 ft 257 kts 68°
2026-04-27 01:21 50.78215 -114.43215 10882 ft 256 kts 68°
2026-04-27 01:21 50.78841 -114.40566 10627 ft 256 kts 67°
2026-04-27 01:21 50.80996 -114.31528 9787 ft 252 kts 67°
2026-04-27 01:22 50.84566 -114.16601 8393 ft 247 kts 67°
2026-04-27 01:22 50.85343 -114.14224 8194 ft 246 kts 53°
2026-04-27 01:22 50.86397 -114.12081 7978 ft 245 kts 49°
2026-04-27 01:22 50.87452 -114.10002 7565 ft 238 kts 50°
2026-04-27 01:23 50.88446 -114.07997 7142 ft 222 kts 52°
2026-04-27 01:23 50.89409 -114.06025 6929 ft 234 kts 52°
2026-04-27 01:23 50.90406 -114.03999 6737 ft 232 kts 49°
2026-04-27 01:23 50.91701 -114.02565 6434 ft 222 kts 22°
2026-04-27 01:24 50.93125 -114.02112 6197 ft 196 kts
2026-04-27 01:24 50.94438 -114.02106 6019 ft 182 kts
2026-04-27 01:24 50.95688 -114.02129 5833 ft 178 kts
2026-04-27 01:24 50.96920 -114.02143 5648 ft 179 kts
2026-04-27 01:25 50.98169 -114.02150 5479 ft 179 kts
2026-04-27 01:25 50.99411 -114.02151 5329 ft 179 kts
2026-04-27 01:25 51.00656 -114.02148 5149 ft 179 kts
2026-04-27 01:25 51.01899 -114.02144 4973 ft 178 kts
2026-04-27 01:26 51.03140 -114.02139 4772 ft 178 kts
2026-04-27 01:26 51.04375 -114.02139 4476 ft 176 kts
2026-04-27 01:26 51.05584 -114.02140 4360 ft 174 kts
2026-04-27 01:26 51.06809 -114.02138 4065 ft 176 kts
2026-04-27 01:27 51.08025 -114.02138 3847 ft 173 kts
2026-04-27 01:27 51.09173 -114.02127 3662 ft 153 kts
2026-04-27 01:27 51.10166 -114.02129 3558 ft 131 kts 360°
2026-04-27 01:27 51.10977 -114.02127 3556 ft 87 kts 359°
2026-04-27 01:28 51.11197 -114.02133 3558 ft 3 kts
2026-04-27 01:28 51.11263 -114.02132 3560 ft 25 kts
2026-04-27 01:28 51.11551 -114.02099 3555 ft 51 kts 15°
2026-04-27 01:28 51.11836 -114.01814 3561 ft 46 kts 19°
2026-04-27 01:29 51.12154 -114.01584 3560 ft 51 kts 25°
2026-04-27 01:29 51.12466 -114.01560 3560 ft 43 kts 11°
2026-04-27 01:29 51.12701 -114.01322 3561 ft 37 kts 32°
2026-04-27 01:29 51.12870 -114.01277 3565 ft 0 kts 15°